"Period start","avg(HW err(1)/warn(2) (#))","avg(Visibility (m))","avg(Weather code (#))","avg(Precip intensity (mm/h))","min(HW err(1)/warn(2) (#))","max(HW err(1)/warn(2) (#))","std(HW err(1)/warn(2) (#))","med(HW err(1)/warn(2) (#))","min(Visibility (m))","max(Visibility (m))","std(Visibility (m))","med(Visibility (m))","min(Weather code (#))","max(Weather code (#))","std(Weather code (#))","med(Weather code (#))","min(Precip intensity (mm/h))","max(Precip intensity (mm/h))","std(Precip intensity (mm/h))","med(Precip intensity (mm/h))"
2014-09-05 00:00:00,2,48977,0,0.00,2,2,0,2,44948,50000,1570,49836,0,0,0,0,0.00,0.00,0.00,0.00
2014-09-05 00:10:00,2,49686,0,0.00,2,2,0,2,48242,50000,634,50000,0,0,0,0,0.00,0.00,0.00,0.00
2014-09-05 00:20:00,1,49382,0,0.00,0,2,1,2,46143,50000,1282,50000,0,0,0,0,0.00,0.00,0.00,0.00
2014-09-05 00:30:00,0,50000,0,0.00,0,0,0,0,50000,50000,0,50000,0,0,0,0,0.00,0.00,0.00,0.00
2014-09-05 00:40:00,1,49395,0,0.00,0,2,1,1,45538,50000,1338,50000,0,0,0,0,0.00,0.00,0.00,0.00
2014-09-05 00:50:00,1,48644,0,0.00,0,2,1,2,42704,50000,2245,50000,0,0,0,0,0.00,0.00,0.00,0.00
2014-09-05 01:00:00,2,46014,0,0.00,2,2,0,2,38377,50000,4973,49804,0,0,0,0,0.00,0.00,0.00,0.00
2014-09-05 01:10:00,2,46441,0,0.00,2,2,0,2,32808,50000,5624,50000,0,0,0,0,0.00,0.00,0.00,0.00
2014-09-05 01:20:00,1,47534,0,0.00,0,2,1,2,42936,50000,2727,48486,0,0,0,0,0.00,0.00,0.00,0.00
2014-09-05 01:30:00,2,43861,0,0.00,0,2,1,2,38165,50000,4294,42796,0,0,0,0,0.00,0.00,0.00,0.00
2014-09-05 01:40:00,2,49246,0,0.00,0,2,1,2,44861,50000,1536,50000,0,0,0,0,0.00,0.00,0.00,0.00
2014-09-05 01:50:00,2,45139,0,0.00,2,2,0,2,32074,50000,6344,47604,0,0,0,0,0.00,0.00,0.00,0.00
2014-09-05 02:00:00,1,45144,0,0.00,0,2,1,2,38906,50000,3302,45408,0,0,0,0,0.00,0.00,0.00,0.00
2014-09-05 02:10:00,0,47940,0,0.00,0,0,0,0,41882,50000,3093,50000,0,0,0,0,0.00,0.00,0.00,0.00
2014-09-05 02:20:00,2,45773,0,0.00,2,2,0,2,38355,50000,3727,45732,0,0,0,0,0.00,0.00,0.00,0.00
2014-09-05 02:30:00,2,46296,0,0.00,2,2,0,2,39148,50000,4183,48576,0,0,0,0,0.00,0.00,0.00,0.00
2014-09-05 02:40:00,2,45085,0,0.00,2,2,0,2,39578,50000,4153,44170,0,0,0,0,0.00,0.00,0.00,0.00
2014-09-05 02:50:00,2,40933,0,0.00,0,2,1,2,33012,47242,4320,41042,0,0,0,0,0.00,0.00,0.00,0.00
2014-09-05 03:00:00,2,44961,0,0.00,2,2,0,2,35444,50000,5181,47494,0,0,0,0,0.00,0.00,0.00,0.00
2014-09-05 03:10:00,0,47266,0,0.00,0,2,1,0,37805,50000,3659,48540,0,0,0,0,0.00,0.00,0.00,0.00
2014-09-05 03:20:00,1,41542,0,0.00,0,2,1,2,25957,50000,8245,43239,0,0,0,0,0.00,0.00,0.00,0.00
2014-09-05 03:30:00,1,48819,0,0.00,0,2,1,1,42381,50000,2280,49708,0,0,0,0,0.00,0.00,0.00,0.00
2014-09-05 03:40:00,0,47051,0,0.00,0,0,0,0,37322,50000,4898,49448,0,0,0,0,0.00,0.00,0.00,0.00
2014-09-05 03:50:00,0,49587,0,0.00,0,0,0,0,47687,50000,834,50000,0,0,0,0,0.00,0.00,0.00,0.00
2014-09-05 04:00:00,0,49045,0,0.00,0,0,0,0,43989,50000,1988,50000,0,0,0,0,0.00,0.00,0.00,0.00
2014-09-05 04:10:00,0,46706,0,0.00,0,0,0,0,40845,50000,3332,47086,0,0,0,0,0.00,0.00,0.00,0.00
2014-09-05 04:20:00,1,44713,0,0.00,0,2,1,1,30848,50000,5658,46853,0,0,0,0,0.00,0.00,0.00,0.00
2014-09-05 04:30:00,1,42478,0,0.00,0,2,1,1,33840,50000,5950,41056,0,0,0,0,0.00,0.00,0.00,0.00
2014-09-05 04:40:00,0,44265,0,0.00,0,2,1,0,37842,50000,4170,43766,0,0,0,0,0.00,0.00,0.00,0.00
2014-09-05 04:50:00,0,49186,0,0.00,0,0,0,0,44340,50000,1737,50000,0,0,0,0,0.00,0.00,0.00,0.00
2014-09-05 05:00:00,0,47976,0,0.00,0,0,0,0,40452,50000,3056,49204,0,0,0,0,0.00,0.00,0.00,0.00
2014-09-05 05:10:00,0,49069,0,0.00,0,0,0,0,46154,50000,1426,50000,0,0,0,0,0.00,0.00,0.00,0.00
2014-09-05 05:20:00,0,47214,0,0.00,0,0,0,0,44182,50000,2314,47630,0,0,0,0,0.00,0.00,0.00,0.00
2014-09-05 05:30:00,0,49681,0,0.00,0,0,0,0,46971,50000,905,50000,0,0,0,0,0.00,0.00,0.00,0.00
2014-09-05 05:40:00,0,49690,0,0.00,0,0,0,0,48497,50000,568,50000,0,0,0,0,0.00,0.00,0.00,0.00
2014-09-05 05:50:00,0,49606,0,0.00,0,0,0,0,46230,50000,1127,50000,0,0,0,0,0.00,0.00,0.00,0.00
2014-09-05 06:00:00,0,49726,0,0.00,0,0,0,0,48199,50000,553,50000,0,0,0,0,0.00,0.00,0.00,0.00
2014-09-05 06:10:00,0,49906,0,0.00,0,0,0,0,49472,50000,189,50000,0,0,0,0,0.00,0.00,0.00,0.00
2014-09-05 06:20:00,0,50000,0,0.00,0,0,0,0,50000,50000,0,50000,0,0,0,0,0.00,0.00,0.00,0.00
2014-09-05 06:30:00,0,49329,0,0.00,0,0,0,0,46354,50000,1306,50000,0,0,0,0,0.00,0.00,0.00,0.00
2014-09-05 06:40:00,0,49630,0,0.00,0,0,0,0,47878,50000,750,50000,0,0,0,0,0.00,0.00,0.00,0.00
2014-09-05 06:50:00,0,50000,0,0.00,0,0,0,0,50000,50000,0,50000,0,0,0,0,0.00,0.00,0.00,0.00
2014-09-05 07:00:00,0,49952,0,0.00,0,0,0,0,49522,50000,143,50000,0,0,0,0,0.00,0.00,0.00,0.00
2014-09-05 07:10:00,0,48776,0,0.00,0,0,0,0,45326,50000,1704,50000,0,0,0,0,0.00,0.00,0.00,0.00
2014-09-05 07:20:00,0,46220,0,0.00,0,0,0,0,33896,50000,4775,47826,0,0,0,0,0.00,0.00,0.00,0.00
2014-09-05 07:30:00,0,49386,0,0.00,0,0,0,0,45937,50000,1198,50000,0,0,0,0,0.00,0.00,0.00,0.00
2014-09-05 07:40:00,0,49337,0,0.00,0,0,0,0,45686,50000,1302,50000,0,0,0,0,0.00,0.00,0.00,0.00
2014-09-05 07:50:00,0,48676,0,0.00,0,0,0,0,40672,50000,2881,50000,0,0,0,0,0.00,0.00,0.00,0.00
2014-09-05 08:00:00,0,48772,0,0.00,0,0,0,0,41224,50000,2725,50000,0,0,0,0,0.00,0.00,0.00,0.00
2014-09-05 08:10:00,0,49051,0,0.00,0,0,0,0,45238,50000,1612,50000,0,0,0,0,0.00,0.00,0.00,0.00
2014-09-05 08:20:00,0,49987,0,0.00,0,0,0,0,49891,50000,33,50000,0,0,0,0,0.00,0.00,0.00,0.00
2014-09-05 08:30:00,0,48476,0,0.00,0,0,0,0,43064,50000,2220,49797,0,0,0,0,0.00,0.00,0.00,0.00
2014-09-05 08:40:00,0,49677,0,0.00,0,0,0,0,46773,50000,968,50000,0,0,0,0,0.00,0.00,0.00,0.00
2014-09-05 08:50:00,0,49692,0,0.00,0,0,0,0,46918,50000,925,50000,0,0,0,0,0.00,0.00,0.00,0.00
2014-09-05 09:00:00,0,49946,0,0.00,0,0,0,0,49465,50000,160,50000,0,0,0,0,0.00,0.00,0.00,0.00
2014-09-05 09:10:00,0,49533,0,0.00,0,0,0,0,46345,50000,1105,50000,0,0,0,0,0.00,0.00,0.00,0.00
2014-09-05 09:20:00,0,50000,0,0.00,0,0,0,0,50000,50000,0,50000,0,0,0,0,0.00,0.00,0.00,0.00
2014-09-05 09:30:00,0,50000,0,0.00,0,0,0,0,50000,50000,0,50000,0,0,0,0,0.00,0.00,0.00,0.00
2014-09-05 09:40:00,0,49405,0,0.00,0,0,0,0,47456,50000,937,50000,0,0,0,0,0.00,0.00,0.00,0.00
2014-09-05 09:50:00,0,50000,0,0.00,0,0,0,0,50000,50000,0,50000,0,0,0,0,0.00,0.00,0.00,0.00
2014-09-05 10:00:00,0,49823,0,0.00,0,0,0,0,48672,50000,406,50000,0,0,0,0,0.00,0.00,0.00,0.00
2014-09-05 10:10:00,0,49398,0,0.00,0,0,0,0,47797,50000,931,50000,0,0,0,0,0.00,0.00,0.00,0.00
2014-09-05 10:20:00,0,49832,0,0.00,0,0,0,0,48320,50000,504,50000,0,0,0,0,0.00,0.00,0.00,0.00
2014-09-05 10:30:00,0,49891,0,0.00,0,0,0,0,49290,50000,230,50000,0,0,0,0,0.00,0.00,0.00,0.00
2014-09-05 10:40:00,0,50000,0,0.00,0,0,0,0,50000,50000,0,50000,0,0,0,0,0.00,0.00,0.00,0.00
2014-09-05 10:50:00,0,50000,0,0.00,0,0,0,0,50000,50000,0,50000,0,0,0,0,0.00,0.00,0.00,0.00
2014-09-05 11:00:00,0,50000,0,0.00,0,0,0,0,50000,50000,0,50000,0,0,0,0,0.00,0.00,0.00,0.00
2014-09-05 11:10:00,0,49611,0,0.00,0,0,0,0,46112,50000,1166,50000,0,0,0,0,0.00,0.00,0.00,0.00
2014-09-05 11:20:00,0,49796,0,0.00,0,0,0,0,48471,50000,467,50000,0,0,0,0,0.00,0.00,0.00,0.00
2014-09-05 11:30:00,0,49987,0,0.00,0,0,0,0,49870,50000,39,50000,0,0,0,0,0.00,0.00,0.00,0.00
2014-09-05 11:40:00,0,49875,0,0.00,0,0,0,0,49221,50000,260,50000,0,0,0,0,0.00,0.00,0.00,0.00
2014-09-05 11:50:00,0,49640,0,0.00,0,0,0,0,47323,50000,820,50000,0,0,0,0,0.00,0.00,0.00,0.00
2014-09-05 12:00:00,0,49992,0,0.00,0,0,0,0,49923,50000,23,50000,0,0,0,0,0.00,0.00,0.00,0.00
2014-09-05 12:10:00,0,50000,0,0.00,0,0,0,0,50000,50000,0,50000,0,0,0,0,0.00,0.00,0.00,0.00
2014-09-05 12:20:00,0,50000,0,0.00,0,0,0,0,50000,50000,0,50000,0,0,0,0,0.00,0.00,0.00,0.00
2014-09-05 12:30:00,0,50000,0,0.00,0,0,0,0,50000,50000,0,50000,0,0,0,0,0.00,0.00,0.00,0.00
2014-09-05 12:40:00,0,50000,0,0.00,0,0,0,0,50000,50000,0,50000,0,0,0,0,0.00,0.00,0.00,0.00
2014-09-05 12:50:00,0,50000,0,0.00,0,0,0,0,50000,50000,0,50000,0,0,0,0,0.00,0.00,0.00,0.00
2014-09-05 13:00:00,0,50000,0,0.00,0,0,0,0,50000,50000,0,50000,0,0,0,0,0.00,0.00,0.00,0.00
2014-09-05 13:10:00,1,50000,0,0.00,0,2,1,1,50000,50000,0,50000,0,0,0,0,0.00,0.00,0.00,0.00
2014-09-05 13:20:00,2,50000,0,0.00,0,2,1,2,50000,50000,0,50000,0,0,0,0,0.00,0.00,0.00,0.00
2014-09-05 13:30:00,2,50000,0,0.00,2,2,0,2,50000,50000,0,50000,0,0,0,0,0.00,0.00,0.00,0.00
2014-09-05 13:40:00,2,50000,0,0.00,2,2,0,2,50000,50000,0,50000,0,0,0,0,0.00,0.00,0.00,0.00
2014-09-05 13:50:00,2,50000,0,0.00,2,2,0,2,50000,50000,0,50000,0,0,0,0,0.00,0.00,0.00,0.00
2014-09-05 14:00:00,2,50000,0,0.00,2,2,0,2,50000,50000,0,50000,0,0,0,0,0.00,0.00,0.00,0.00
2014-09-05 14:10:00,2,50000,0,0.00,2,2,0,2,50000,50000,0,50000,0,0,0,0,0.00,0.00,0.00,0.00
2014-09-05 14:20:00,2,50000,0,0.00,2,2,0,2,50000,50000,0,50000,0,0,0,0,0.00,0.00,0.00,0.00
2014-09-05 14:30:00,2,50000,0,0.00,2,2,0,2,50000,50000,0,50000,0,0,0,0,0.00,0.00,0.00,0.00
2014-09-05 14:40:00,2,50000,0,0.00,2,2,0,2,50000,50000,0,50000,0,0,0,0,0.00,0.00,0.00,0.00
2014-09-05 14:50:00,2,50000,0,0.00,2,2,0,2,50000,50000,0,50000,0,0,0,0,0.00,0.00,0.00,0.00
2014-09-05 15:00:00,2,49846,0,0.00,2,2,0,2,48465,50000,460,50000,0,0,0,0,0.00,0.00,0.00,0.00
2014-09-05 15:10:00,2,50000,0,0.00,2,2,0,2,50000,50000,0,50000,0,0,0,0,0.00,0.00,0.00,0.00
2014-09-05 15:20:00,2,50000,0,0.00,2,2,0,2,50000,50000,0,50000,0,0,0,0,0.00,0.00,0.00,0.00
2014-09-05 15:30:00,2,49770,0,0.00,2,2,0,2,47696,50000,691,50000,0,0,0,0,0.00,0.00,0.00,0.00
2014-09-05 15:40:00,2,50000,0,0.00,2,2,0,2,50000,50000,0,50000,0,0,0,0,0.00,0.00,0.00,0.00
2014-09-05 15:50:00,2,49880,0,0.00,2,2,0,2,48811,50000,356,50000,0,0,0,0,0.00,0.00,0.00,0.00
2014-09-05 16:00:00,2,50000,0,0.00,2,2,0,2,50000,50000,0,50000,0,0,0,0,0.00,0.00,0.00,0.00
2014-09-05 16:10:00,2,50000,0,0.00,2,2,0,2,50000,50000,0,50000,0,0,0,0,0.00,0.00,0.00,0.00
2014-09-05 16:20:00,2,50000,0,0.00,2,2,0,2,50000,50000,0,50000,0,0,0,0,0.00,0.00,0.00,0.00
2014-09-05 16:30:00,2,50000,0,0.00,2,2,0,2,50000,50000,0,50000,0,0,0,0,0.00,0.00,0.00,0.00
2014-09-05 16:40:00,2,50000,0,0.00,2,2,0,2,50000,50000,0,50000,0,0,0,0,0.00,0.00,0.00,0.00
2014-09-05 16:50:00,2,50000,0,0.00,2,2,0,2,50000,50000,0,50000,0,0,0,0,0.00,0.00,0.00,0.00
2014-09-05 17:00:00,2,49932,0,0.00,2,2,0,2,49320,50000,204,50000,0,0,0,0,0.00,0.00,0.00,0.00
2014-09-05 17:10:00,2,50000,0,0.00,2,2,0,2,50000,50000,0,50000,0,0,0,0,0.00,0.00,0.00,0.00
2014-09-05 17:20:00,2,50000,0,0.00,2,2,0,2,50000,50000,0,50000,0,0,0,0,0.00,0.00,0.00,0.00
2014-09-05 17:30:00,2,50000,0,0.00,2,2,0,2,50000,50000,0,50000,0,0,0,0,0.00,0.00,0.00,0.00
2014-09-05 17:40:00,2,50000,0,0.00,2,2,0,2,50000,50000,0,50000,0,0,0,0,0.00,0.00,0.00,0.00
2014-09-05 17:50:00,2,50000,0,0.00,2,2,0,2,50000,50000,0,50000,0,0,0,0,0.00,0.00,0.00,0.00
2014-09-05 18:00:00,2,50000,0,0.00,2,2,0,2,50000,50000,0,50000,0,0,0,0,0.00,0.00,0.00,0.00
2014-09-05 18:10:00,0,50000,0,0.00,0,2,1,0,50000,50000,0,50000,0,0,0,0,0.00,0.00,0.00,0.00
2014-09-05 18:20:00,0,50000,0,0.00,0,0,0,0,50000,50000,0,50000,0,0,0,0,0.00,0.00,0.00,0.00
2014-09-05 18:30:00,0,50000,0,0.00,0,0,0,0,50000,50000,0,50000,0,0,0,0,0.00,0.00,0.00,0.00
2014-09-05 18:40:00,0,50000,0,0.00,0,0,0,0,50000,50000,0,50000,0,0,0,0,0.00,0.00,0.00,0.00
2014-09-05 18:50:00,1,49934,0,0.00,0,2,1,1,49344,50000,197,50000,0,0,0,0,0.00,0.00,0.00,0.00
2014-09-05 19:00:00,2,50000,0,0.00,2,2,0,2,50000,50000,0,50000,0,0,0,0,0.00,0.00,0.00,0.00
2014-09-05 19:10:00,2,50000,0,0.00,2,2,0,2,50000,50000,0,50000,0,0,0,0,0.00,0.00,0.00,0.00
2014-09-05 19:20:00,2,50000,0,0.00,2,2,0,2,50000,50000,0,50000,0,0,0,0,0.00,0.00,0.00,0.00
2014-09-05 19:30:00,2,50000,0,0.00,2,2,0,2,50000,50000,0,50000,0,0,0,0,0.00,0.00,0.00,0.00
2014-09-05 19:40:00,2,50000,0,0.00,2,2,0,2,50000,50000,0,50000,0,0,0,0,0.00,0.00,0.00,0.00
2014-09-05 19:50:00,2,49995,0,0.00,0,2,1,2,49954,50000,14,50000,0,0,0,0,0.00,0.00,0.00,0.00
2014-09-05 20:00:00,0,50000,0,0.00,0,0,0,0,50000,50000,0,50000,0,0,0,0,0.00,0.00,0.00,0.00
2014-09-05 20:10:00,0,49731,0,0.00,0,0,0,0,48286,50000,563,50000,0,0,0,0,0.00,0.00,0.00,0.00
2014-09-05 20:20:00,0,50000,0,0.00,0,0,0,0,50000,50000,0,50000,0,0,0,0,0.00,0.00,0.00,0.00
2014-09-05 20:30:00,0,50000,0,0.00,0,0,0,0,50000,50000,0,50000,0,0,0,0,0.00,0.00,0.00,0.00
2014-09-05 20:40:00,0,49875,0,0.00,0,0,0,0,48820,50000,352,50000,0,0,0,0,0.00,0.00,0.00,0.00
2014-09-05 20:50:00,0,49416,0,0.00,0,0,0,0,45589,50000,1315,50000,0,0,0,0,0.00,0.00,0.00,0.00
2014-09-05 21:00:00,0,49665,0,0.00,0,0,0,0,47949,50000,639,50000,0,0,0,0,0.00,0.00,0.00,0.00
2014-09-05 21:10:00,1,49748,0,0.00,0,2,1,0,47481,50000,756,50000,0,0,0,0,0.00,0.00,0.00,0.00
2014-09-05 21:20:00,1,49620,0,0.00,0,2,1,2,47136,50000,874,50000,0,0,0,0,0.00,0.00,0.00,0.00
2014-09-05 21:30:00,2,49936,0,0.00,2,2,0,2,49360,50000,192,50000,0,0,0,0,0.00,0.00,0.00,0.00
2014-09-05 21:40:00,2,50000,0,0.00,2,2,0,2,50000,50000,0,50000,0,0,0,0,0.00,0.00,0.00,0.00
2014-09-05 21:50:00,2,49268,0,0.00,2,2,0,2,45957,50000,1473,50000,0,0,0,0,0.00,0.00,0.00,0.00
2014-09-05 22:00:00,2,49684,0,0.00,2,2,0,2,48216,50000,611,50000,0,0,0,0,0.00,0.00,0.00,0.00
2014-09-05 22:10:00,2,49823,0,0.00,0,2,1,2,49016,50000,354,50000,0,0,0,0,0.00,0.00,0.00,0.00
2014-09-05 22:20:00,2,49864,0,0.00,2,2,0,2,49003,50000,307,50000,0,0,0,0,0.00,0.00,0.00,0.00
2014-09-05 22:30:00,2,50000,0,0.00,2,2,0,2,50000,50000,0,50000,0,0,0,0,0.00,0.00,0.00,0.00
2014-09-05 22:40:00,2,49946,0,0.00,2,2,0,2,49465,50000,160,50000,0,0,0,0,0.00,0.00,0.00,0.00
2014-09-05 22:50:00,2,49949,0,0.00,2,2,0,2,49491,50000,153,50000,0,0,0,0,0.00,0.00,0.00,0.00
2014-09-05 23:00:00,2,48633,0,0.00,2,2,0,2,44237,50000,1918,49728,0,0,0,0,0.00,0.00,0.00,0.00
2014-09-05 23:10:00,2,49172,0,0.00,2,2,0,2,45804,50000,1382,50000,0,0,0,0,0.00,0.00,0.00,0.00
2014-09-05 23:20:00,2,48110,0,0.00,2,2,0,2,44343,50000,1710,48034,0,0,0,0,0.00,0.00,0.00,0.00
2014-09-05 23:30:00,2,50000,0,0.00,2,2,0,2,50000,50000,0,50000,0,0,0,0,0.00,0.00,0.00,0.00
2014-09-05 23:40:00,2,49598,0,0.00,2,2,0,2,47972,50000,805,50000,0,0,0,0,0.00,0.00,0.00,0.00
2014-09-05 23:50:00,2,48310,0,0.00,2,2,0,2,41316,50000,3110,50000,0,0,0,0,0.00,0.00,0.00,0.00
